User: anonymous   Login
Location: Fort Wayne
(41.1310°N, 85.1290°W)
Time: 14:29:09
(UTC-04:00)
Language:

Cosmos 1980 - Orbit

View from above orbital plane
View from above orbital plane
View from above satellite
View from above satellite

Ground track
Ground track

The orbit data is extracted from the following two-line orbital elements,

1 19649U 88102A   16205.53984201 -.00000212  00000-0 -85710-4 0  9996
2 19649  71.0008  35.6101 0003072  91.7421 268.4053 14.14649864428097
Epoch (UTC): 23 July 2016 12:57:22
Eccentricity: 0.0003072
inclination: 71.0008°
perigee height: 841 km
apogee height: 846 km
right ascension of ascending node: 35.6101°
argument of perigee: 91.7421°
revolutions per day: 14.14649864
mean anomaly at epoch: 268.4053°
orbit number at epoch: 42809

The dashed part of the orbit path shows where the satellite is in the earth's shadow,  

DLR